Location: *
(46.1833°N, 22.7667°E)
Time: 18:42:42
(UTC+00:00)

SJ-6B - Pass Details

Date: 17 September 2019
Orbit: 509 x 583 km, 97.6° (Epoch: 19 October)

Event Time Altitude Azimuth Distance (km) Brightness Sun altitude
Exits shadow 17:01:48 - 124° (SE) 2,468 5.6 -5.0°
Reaches altitude 10° 17:03:29 10° 112° (ESE) 1,900 4.9 -5.3°
Maximum altitude 17:06:31 20° 65° (ENE) 1,361 4.4 -5.8°
Drops below altitude 10° 17:09:33 10° 17° (NNE) 1,897 5.5 -6.4°
Sets 17:12:07 0° 1° (N) 2,790 6.5 -6.8°
